カタログに戻る

SL-8 R/B

運用中PO
NORAD 26819·ROCKET BODY·🇷🇺 Russia

打ち上げ Jun 8, 2001 から Plesetsk Cosmodrome

Loading…

次のパス (今後24時間)

TLE

最新Source: Space-Track

元期: Sep 14, 2026, 22:20 UTC

1 26819U 01023B   26257.93089343  .00000101  00000-0  88072-4 0  9994
2 26819  82.9246 133.4877 0024219  89.0411 298.0471 13.75950661268676

AllMySatでSL-8 R/Bをリアルタイム追跡

Download on the App Store